K3CHZ Weather Reports


Display with metric or nautical units.
time (UTC)temp
F
wind
direction
speed
MPH
gust
MPH
rain 1hr
in
rain 24hr
in
rain mn
in
humidity
%
barometer
mb
20260510041215 56 175 0.0 0.0 0.00 0.00 0.00 87 1010.6
20260510040717 57 175 0.0 0.0 0.00 0.00 0.00 86 1010.6
20260510040215 57 175 0.0 0.0 0.00 0.00 0.00 86 1010.6
20260510035716 57 175 0.0 0.0 0.00 0.00 0.00 86 1010.6
20260510035215 57 175 0.0 0.0 0.00 0.00 0.00 86 1010.5
20260510034716 57 175 0.0 0.0 0.00 0.00 0.00 86 1010.5
20260510034216 57 175 0.0 0.0 0.00 0.00 0.00 86 1010.6
20260510033715 58 175 0.0 0.0 0.00 0.00 0.00 86 1010.6
20260510033215 58 175 0.0 0.0 0.00 0.00 0.00 85 1010.5
20260510032717 58 175 0.0 0.0 0.00 0.00 0.00 85 1010.5
20260510032215 58 175 0.0 0.0 0.00 0.00 0.00 84 1010.5
20260510031724 59 175 0.0 0.0 0.00 0.00 0.00 84 1010.5
20260510031215 59 175 0.0 0.0 0.00 0.00 0.00 83 1010.5
20260510030715 59 175 0.0 0.0 0.00 0.00 0.00 83 1010.4
20260510030215 60 175 0.0 0.0 0.00 0.00 0.00 82 1010.4
20260510025718 60 175 0.0 0.0 0.00 0.00 0.00 82 1010.4
20260510025215 60 175 0.0 0.0 0.00 0.00 0.00 81 1010.3
20260510024716 60 175 0.0 0.0 0.00 0.00 0.00 81 1010.3
20260510024217 60 175 0.0 0.0 0.00 0.00 0.00 81 1010.3
20260510023717 60 175 0.0 0.0 0.00 0.00 0.00 81 1010.2
20260510023216 60 175 0.0 0.0 0.00 0.00 0.00 81 1010.1
20260510022718 61 175 0.0 0.0 0.00 0.00 0.00 81 1010.1
20260510021718 61 175 0.0 0.0 0.00 0.00 0.00 80 1010.2
20260510021219 61 175 0.0 0.0 0.00 0.00 0.00 80 1010.1
20260510020719 61 175 0.0 0.0 0.00 0.00 0.00 80 1010.1
20260510020218 61 175 0.0 0.0 0.00 0.00 0.00 80 1010.1
20260510015718 62 175 0.0 0.0 0.00 0.00 0.00 79 1010.1
20260510015219 62 175 0.0 0.0 0.00 0.00 0.00 79 1010.1
20260510014720 62 175 0.0 0.0 0.00 0.00 0.00 79 1010.0
20260510014219 62 175 0.0 0.0 0.00 0.00 0.00 79 1009.9
20260510013718 62 175 0.0 0.0 0.00 0.00 0.00 79 1009.7
20260510013219 62 175 0.0 0.0 0.00 0.00 0.00 79 1009.7
20260510012718 62 175 0.0 2.0 0.00 0.00 0.00 79 1009.6
20260510012219 62 175 0.0 2.0 0.00 0.00 0.00 78 1009.6
20260510011718 62 175 0.0 2.0 0.00 0.00 0.00 78 1009.5
20260510011220 62 175 0.0 0.0 0.00 0.00 0.00 78 1009.4
20260510010718 63 175 0.0 0.0 0.00 0.00 0.00 78 1009.4
20260510010219 63 175 0.0 0.0 0.00 0.00 0.00 77 1009.4
20260510005718 63 175 0.0 0.0 0.00 0.00 0.00 77 1009.3
20260510005219 63 175 0.0 1.0 0.00 0.00 0.00 77 1009.3
20260510004721 63 175 0.0 1.0 0.00 0.00 0.00 77 1009.2
20260510004218 63 175 0.0 0.0 0.00 0.00 0.00 77 1009.3
20260510003719 64 175 0.0 0.0 0.00 0.00 0.00 76 1009.2
20260510003220 64 175 0.0 0.0 0.00 0.00 0.00 76 1009.1
20260510002719 64 175 0.0 0.0 0.00 0.00 0.00 74 1009.0
20260510002219 65 175 0.0 0.0 0.00 0.00 0.00 74 1009.0
20260510001719 65 175 0.0 0.0 0.00 0.00 0.00 74 1009.1
20260510000719 65 175 0.0 0.0 0.00 0.00 0.00 73 1009.0
20260510000219 66 175 0.0 0.0 0.00 0.00 0.00 72 1009.0
20260509235218 66 175 0.0 0.0 0.00 0.00 0.00 71 1008.8
20260509234721 66 175 0.0 2.0 0.00 0.00 0.00 71 1008.8
20260509234219 66 175 1.0 2.0 0.00 0.00 0.00 71 1008.9
20260509233219 67 181 0.0 0.0 0.00 0.00 0.00 71 1008.8
20260509232216 68 181 0.0 3.0 0.00 0.00 0.00 69 1008.7
20260509231716 68 181 0.0 0.0 0.00 0.00 0.00 68 1008.7
20260509230215 68 181 0.0 0.0 0.00 0.00 0.00 62 1008.7
20260509225215 68 181 0.0 0.0 0.00 0.00 0.00 63 1008.5
20260509224717 69 181 0.0 0.0 0.00 0.00 0.00 63 1008.6
20260509224216 69 181 0.0 0.0 0.00 0.00 0.00 62 1008.6
20260509223716 69 121 0.0 0.0 0.00 0.00 0.00 62 1008.6
20260509222716 69 137 0.0 0.0 0.00 0.00 0.00 62 1008.7
20260509221716 69 137 0.0 0.0 0.00 0.00 0.00 62 1008.6
20260509221216 69 137 0.0 0.0 0.00 0.00 0.00 61 1008.7
20260509220215 68 137 0.0 0.0 0.00 0.00 0.00 62 1008.7
20260509215715 69 137 0.0 0.0 0.00 0.00 0.00 66 1008.6
20260509215217 69 137 0.0 0.0 0.00 0.00 0.00 66 1008.7
20260509214715 69 137 0.0 0.0 0.00 0.00 0.00 64 1008.8
20260509214215 69 137 0.0 0.0 0.00 0.00 0.00 63 1008.7
20260509213716 69 137 0.0 0.0 0.00 0.00 0.00 63 1008.8
20260509213217 69 137 0.0 0.0 0.00 0.00 0.00 61 1008.8
20260509212219 69 157 0.0 0.0 0.00 0.00 0.00 62 1008.7
20260509211720 69 157 0.0 0.0 0.00 0.00 0.00 60 1008.7
20260509211219 69 98 0.0 0.0 0.00 0.00 0.00 63 1008.7
20260509210720 69 98 0.0 0.0 0.00 0.00 0.00 60 1008.8
20260509210218 69 98 0.0 0.0 0.00 0.00 0.00 61 1008.9
20260509205719 69 98 0.0 0.0 0.00 0.00 0.00 61 1008.7
20260509205219 69 98 0.0 0.0 0.00 0.00 0.00 61 1008.7
20260509204719 68 98 0.0 0.0 0.00 0.00 0.00 62 1008.7
20260509204219 68 96 0.0 0.0 0.00 0.00 0.00 63 1008.8
20260509203719 68 97 0.0 0.0 0.00 0.00 0.00 63 1008.7
20260509203219 68 97 0.0 0.0 0.00 0.00 0.00 62 1008.7
20260509202720 68 97 0.0 2.0 0.00 0.00 0.00 62 1008.7
20260509202503 68 97 0.0 2.0 0.00 0.00 0.00 61 1008.8
20260509201004 69 73 0.0 0.0 0.00 0.00 0.00 59 1008.7
20260509200216 69 84 0.0 0.0 0.00 0.00 0.00 60 1008.8
20260509195716 69 103 0.0 1.0 0.00 0.00 0.00 60 1008.9
20260509195218 69 113 0.0 1.0 0.00 0.00 0.00 61 1009.0
20260509194717 68 190 0.0 1.0 0.00 0.00 0.00 60 1009.0
20260509194216 68 205 0.0 1.0 0.00 0.00 0.00 61 1009.1
20260509193717 68 205 0.0 1.0 0.00 0.00 0.00 61 1009.3
20260509193217 68 172 0.0 0.0 0.00 0.00 0.00 62 1009.5
20260509192717 67 171 0.0 0.0 0.00 0.00 0.00 62 1009.5
20260509192221 67 171 0.0 2.0 0.00 0.00 0.00 61 1009.5
20260509191720 67 171 0.0 2.0 0.00 0.00 0.00 61 1009.5
20260509190719 67 199 0.0 0.0 0.00 0.00 0.00 63 1009.5
20260509190221 67 199 0.0 0.0 0.00 0.00 0.00 62 1009.6
20260509185720 67 199 0.0 0.0 0.00 0.00 0.00 65 1009.8
20260509184720 68 199 0.0 1.0 0.00 0.00 0.00 59 1009.8
20260509184221 68 148 0.0 1.0 0.00 0.00 0.00 61 1009.8
20260509183719 67 219 0.0 1.0 0.00 0.00 0.00 62 1009.9
20260509183223 67 276 0.0 0.0 0.00 0.00 0.00 64 1009.9
20260509182717 67 276 0.0 0.0 0.00 0.00 0.00 61 1009.9
20260509182216 66 276 0.0 0.0 0.00 0.00 0.00 66 1010.1
20260509181717 66 276 0.0 1.0 0.00 0.00 0.00 61 1010.3
20260509181217 66 276 0.0 1.0 0.00 0.00 0.00 64 1010.5
20260509180717 65 276 0.0 0.0 0.00 0.00 0.00 62 1010.6
20260509180217 65 296 0.0 3.0 0.00 0.00 0.00 61 1010.6
20260509175719 65 295 0.0 3.0 0.00 0.00 0.00 63 1010.7
20260509175216 65 105 0.0 0.0 0.00 0.00 0.00 63 1010.7
20260509174717 65 105 0.0 0.0 0.00 0.00 0.00 62 1010.8
20260509174217 65 105 0.0 0.0 0.00 0.00 0.00 60 1010.8
20260509173717 65 106 0.0 0.0 0.00 0.00 0.00 63 1010.8
20260509173217 65 118 0.0 0.0 0.00 0.00 0.00 63 1010.9
20260509172716 64 119 0.0 0.0 0.00 0.00 0.00 64 1011.0
20260509172215 64 119 0.0 0.0 0.00 0.00 0.00 65 1011.0
20260509171714 64 121 0.0 0.0 0.00 0.00 0.00 65 1011.0
20260509171213 64 121 0.0 0.0 0.00 0.00 0.00 64 1011.0
20260509170715 64 121 0.0 0.0 0.00 0.00 0.00 65 1011.1
20260509170215 64 121 0.0 0.0 0.00 0.00 0.00 64 1011.1
20260509165716 64 118 0.0 0.0 0.00 0.00 0.00 62 1011.1
20260509165214 64 118 0.0 0.0 0.00 0.00 0.00 63 1011.1
20260509164713 64 118 0.0 0.0 0.00 0.00 0.00 62 1011.0
20260509164215 64 118 0.0 0.0 0.00 0.00 0.00 63 1011.0
20260509163714 64 118 0.0 0.0 0.00 0.00 0.00 59 1011.0
20260509163214 64 219 0.0 0.0 0.00 0.00 0.00 64 1011.2
20260509162714 63 219 0.0 0.0 0.00 0.00 0.00 63 1011.1
20260509162214 64 219 0.0 0.0 0.00 0.00 0.00 63 1011.2
20260509161215 63 174 0.0 0.0 0.00 0.00 0.00 62 1011.2
20260509160714 63 173 0.0 3.0 0.00 0.00 0.00 62 1011.2
20260509160214 63 174 0.0 3.0 0.00 0.00 0.00 62 1011.2
20260509155714 63 173 0.0 3.0 0.00 0.00 0.00 63 1011.2
20260509155214 63 174 0.0 0.0 0.00 0.00 0.00 64 1011.2
20260509154713 63 174 0.0 0.0 0.00 0.00 0.00 63 1011.3
20260509154214 63 174 0.0 0.0 0.00 0.00 0.00 62 1011.3
20260509153715 63 174 0.0 0.0 0.00 0.00 0.00 61 1011.3
20260509153215 63 174 0.0 5.0 0.00 0.00 0.00 62 1011.3
20260509152714 63 174 0.0 5.0 0.00 0.00 0.00 62 1011.3
20260509152217 62 158 0.0 0.0 0.00 0.00 0.00 63 1011.3
20260509151717 62 153 0.0 0.0 0.00 0.00 0.00 66 1011.3
20260509151217 62 153 0.0 0.0 0.00 0.00 0.00 63 1011.4
20260509150717 62 157 0.0 0.0 0.00 0.00 0.00 63 1011.4
20260509150216 61 157 0.0 0.0 0.00 0.00 0.00 65 1011.6
20260509145718 61 157 0.0 0.0 0.00 0.00 0.00 64 1011.5
20260509145217 61 157 0.0 0.0 0.00 0.00 0.00 65 1011.6
20260509144717 61 157 0.0 0.0 0.00 0.00 0.00 64 1011.7
20260509144217 61 155 0.0 0.0 0.00 0.00 0.00 65 1011.8
20260509143218 60 155 0.0 0.0 0.00 0.00 0.00 62 1011.8
20260509142717 60 155 0.0 1.0 0.00 0.00 0.00 61 1011.8
20260509142218 60 154 0.0 1.0 0.00 0.00 0.00 62 1011.8
20260509141717 60 143 0.0 0.0 0.00 0.00 0.00 62 1011.6
20260509141217 60 143 0.0 0.0 0.00 0.00 0.00 63 1011.6
20260509140221 60 144 0.0 0.0 0.00 0.00 0.00 62 1011.6
20260509135719 60 142 0.0 2.0 0.00 0.00 0.00 61 1011.7
20260509135217 60 267 0.0 2.0 0.00 0.00 0.00 62 1011.8
20260509134717 60 269 0.0 1.0 0.00 0.00 0.00 62 1011.7
20260509134217 60 269 0.0 1.0 0.00 0.00 0.00 60 1011.6
20260509133717 60 207 0.0 0.0 0.00 0.00 0.00 64 1011.6
20260509133218 60 192 0.0 1.0 0.00 0.00 0.00 63 1011.6
20260509131717 60 195 0.0 0.0 0.00 0.00 0.00 62 1011.7
20260509131217 60 195 0.0 0.0 0.00 0.00 0.00 62 1011.7
20260509130717 60 195 0.0 1.0 0.00 0.00 0.00 61 1011.6
20260509125717 60 195 0.0 0.0 0.00 0.00 0.00 62 1011.6
20260509125216 59 68 0.0 0.0 0.00 0.00 0.00 61 1011.5
20260509124718 59 139 0.0 0.0 0.00 0.00 0.00 64 1011.6
20260509124218 59 138 0.0 0.0 0.00 0.00 0.00 61 1011.7
20260509123217 58 131 0.0 0.0 0.00 0.00 0.00 62 1011.7
20260509122714 58 92 0.0 0.0 0.00 0.00 0.00 63 1011.7
20260509122214 58 89 0.0 0.0 0.00 0.00 0.00 64 1011.8
20260509121714 58 110 0.0 0.0 0.00 0.00 0.00 62 1011.7
20260509121214 58 224 0.0 0.0 0.00 0.00 0.00 64 1011.6
20260509120215 58 197 0.0 0.0 0.00 0.00 0.00 63 1011.5
20260509115714 58 197 0.0 0.0 0.00 0.00 0.00 62 1011.4
20260509115214 58 197 0.0 0.0 0.00 0.00 0.00 62 1011.5
20260509114214 57 202 0.0 0.0 0.00 0.00 0.00 64 1011.4
20260509113714 57 202 0.0 0.0 0.00 0.00 0.00 63 1011.3
20260509113214 57 202 0.0 0.0 0.00 0.00 0.00 63 1011.3
20260509112715 57 153 0.0 0.0 0.00 0.00 0.00 63 1011.2
20260509112217 57 153 0.0 0.0 0.00 0.00 0.00 63 1011.2
20260509111218 57 158 0.0 2.0 0.00 0.00 0.00 62 1011.1
20260509110717 57 158 0.0 2.0 0.00 0.00 0.00 61 1011.2
20260509110217 57 158 0.0 0.0 0.00 0.00 0.00 59 1011.0
20260509105717 57 158 0.0 0.0 0.00 0.00 0.00 59 1011.0
20260509105217 57 158 0.0 0.0 0.00 0.00 0.00 58 1010.9
20260509104717 57 158 0.0 0.0 0.00 0.00 0.00 58 1010.9
20260509104218 57 158 0.0 0.0 0.00 0.00 0.00 58 1010.8
20260509103717 57 35 0.0 0.0 0.00 0.00 0.00 58 1010.8
20260509102714 57 35 0.0 0.0 0.00 0.00 0.00 58 1010.8
20260509102215 57 293 0.0 0.0 0.00 0.00 0.00 58 1010.8
20260509101214 57 293 0.0 0.0 0.00 0.00 0.00 58 1010.8
20260509100715 57 293 0.0 0.0 0.00 0.00 0.00 58 1010.8
20260509100214 57 293 0.0 0.0 0.00 0.00 0.00 60 1010.8
20260509095714 57 293 0.0 0.0 0.00 0.00 0.00 59 1010.8
20260509095215 57 293 0.0 0.0 0.00 0.00 0.00 60 1010.9
20260509093714 57 293 0.0 0.0 0.00 0.00 0.00 61 1010.9
20260509093214 57 293 0.0 0.0 0.00 0.00 0.00 62 1010.9
20260509092714 57 293 0.0 0.0 0.00 0.00 0.00 61 1010.9
20260509092217 57 293 0.0 0.0 0.00 0.00 0.00 61 1011.0
20260509091718 57 293 0.0 0.0 0.00 0.00 0.00 60 1011.0
20260509091219 57 293 0.0 0.0 0.00 0.00 0.00 60 1011.0
20260509090218 57 293 0.0 0.0 0.00 0.00 0.00 61 1011.0
20260509085717 57 293 0.0 0.0 0.00 0.00 0.00 60 1011.0
20260509085217 57 293 0.0 0.0 0.00 0.00 0.00 60 1011.1
20260509084719 57 293 0.0 0.0 0.00 0.00 0.00 60 1011.2
20260509083721 57 293 0.0 0.0 0.00 0.00 0.00 60 1011.2
20260509083218 57 293 0.0 2.0 0.00 0.00 0.00 60 1011.4
20260509082718 57 293 0.0 3.0 0.00 0.00 0.00 60 1011.4
20260509081717 57 293 1.0 3.0 0.00 0.00 0.00 60 1011.6
20260509081217 57 293 1.0 3.0 0.00 0.00 0.00 60 1011.6
20260509080717 57 293 1.0 3.0 0.00 0.00 0.00 61 1011.6
20260509080218 57 293 1.0 3.0 0.00 0.00 0.00 60 1011.6
20260509075717 57 293 0.0 2.0 0.00 0.00 0.00 60 1011.6
20260509075218 57 293 0.0 2.0 0.00 0.00 0.00 61 1011.6
20260509074717 57 293 1.0 2.0 0.00 0.00 0.00 60 1011.7
20260509074217 57 293 0.0 2.0 0.00 0.00 0.00 60 1011.6
20260509073717 57 293 1.0 2.0 0.00 0.00 0.00 60 1011.6
20260509073218 57 256 1.0 2.0 0.00 0.00 0.00 61 1011.6
20260509072717 57 226 0.0 2.0 0.00 0.00 0.00 61 1011.6
20260509072219 56 226 0.0 2.0 0.00 0.00 0.00 61 1011.6
20260509071718 56 226 1.0 2.0 0.00 0.00 0.00 61 1011.5
20260509071217 56 226 0.0 0.0 0.00 0.00 0.00 61 1011.5
20260509070717 56 226 0.0 0.0 0.00 0.00 0.00 61 1011.5
20260509070217 56 226 0.0 2.0 0.00 0.00 0.00 62 1011.4
20260509065717 56 226 0.0 3.0 0.00 0.00 0.00 62 1011.4
20260509065217 56 226 1.0 3.0 0.00 0.00 0.00 62 1011.5
20260509064719 56 226 0.0 0.0 0.00 0.00 0.00 62 1011.6
20260509064218 56 226 0.0 0.0 0.00 0.00 0.00 61 1011.6
20260509063717 56 226 0.0 1.0 0.00 0.00 0.00 62 1011.9
20260509062717 56 226 1.0 2.0 0.00 0.00 0.00 62 1011.9
20260509062221 56 226 0.0 0.0 0.00 0.00 0.00 63 1011.9
20260509061722 55 226 0.0 0.0 0.00 0.00 0.00 63 1011.9
20260509061221 55 226 0.0 2.0 0.00 0.00 0.00 63 1011.9
20260509055721 55 226 0.0 2.0 0.00 0.00 0.00 62 1012.0
20260509055221 55 226 0.0 2.0 0.00 0.00 0.00 62 1012.0
20260509054720 55 226 0.0 0.0 0.00 0.00 0.00 62 1012.1
20260509054223 56 226 0.0 0.0 0.00 0.00 0.00 62 1012.0
20260509053720 56 226 0.0 2.0 0.00 0.00 0.00 61 1012.0
20260509053220 56 226 0.0 2.0 0.00 0.00 0.00 61 1012.0
20260509052718 56 226 1.0 2.0 0.00 0.00 0.00 61 1012.1
20260509051718 56 226 0.0 0.0 0.00 0.00 0.00 60 1012.1
20260509051218 56 226 0.0 0.0 0.00 0.00 0.00 60 1012.2
20260509050717 56 226 0.0 0.0 0.00 0.00 0.00 59 1012.2
20260509050218 56 226 0.0 0.0 0.00 0.00 0.00 59 1012.1
20260509045719 56 226 0.0 0.0 0.00 0.00 0.00 58 1012.1
20260509044719 57 226 0.0 1.0 0.00 0.00 0.00 58 1012.0
20260509044218 57 226 0.0 2.0 0.00 0.00 0.00 59 1012.1
20260509043218 57 226 1.0 2.0 0.00 0.00 0.00 58 1012.1
20260509042717 57 226 0.0 2.0 0.00 0.00 0.00 58 1012.1
20260509042219 57 226 1.0 2.0 0.00 0.00 0.00 58 1012.1
20260509041717 57 226 0.0 2.0 0.00 0.00 0.00 58 1012.1